Weather History for Talkeetna, AK

Change the Weather History Date:

Thursday, November 8, 2012

  Actual Average Record
Temperature  
Mean Temperature 14 °F -  
Max Temperature 26 °F 27 °F 48 °F (2002)
Min Temperature 3 °F 12 °F -19 °F (1956)
Degree Days  
Heating Degree Days 51    
Moisture  
Dew Point -1 °F    
Average Humidity 46    
Maximum Humidity 83    
Minimum Humidity 24    
Precipitation  
Precipitation 0.00 in - - ()
Sea Level Pressure  
Sea Level Pressure 30.34 in    
Wind  
Wind Speed 5 mph (NNE)    
Max Wind Speed 10 mph    
Max Gust Speed 17 mph    
Visibility 10 miles    
Events      
Averages and records for this station are not official NWS values.
T = Trace of Precipitation, MM = Missing Value Source: NWS Daily Summary

Daily Weather History Graph

Daily Weather History Graph

Search for Another Location

Airport:

Trip Planner

Search our weather history database for the weather conditions in past years. The results will help you decide how hot, cold, wet, or windy it might be!

Date:

Astronomy

Nov. 08, 2012 Rise Set
Actual Time 8:56 AM AKST 4:31 PM AKST
Civil Twilight 8:03 AM AKST 5:23 PM AKST
Nautical Twilight 7:09 AM AKST 6:18 PM AKST
Astronomical Twilight 6:16 AM AKST 7:10 PM AKST
Moon 1:19 AM AKST (11/8) 2:48 PM AKST (11/8)
Length of Visible Light 9h 19m
Length of Day
7h 35m
Waning Crescent, 31% of the Moon is Illuminated
Nov 8
Waning Crescent
Nov 13
New
Nov 20
First Quarter
Nov 28
Full
Dec 6
Last Quarter

Hourly Weather History & Observations

Time (AKST) Temp. Windchill Dew Point Humidity Pressure Visibility Wind Dir Wind Speed Gust Speed Precip Events Conditions
12:53 AM 1.0 °F - -2.9 °F 83% 30.41 in 10.0 mi Calm Calm - N/A   Clear
1:53 AM 1.9 °F -5.6 °F -2.9 °F 80% 30.41 in 10.0 mi NE 3.5 mph - N/A   Clear
3:53 AM 3.9 °F - -2.0 °F 76% 30.40 in 10.0 mi Calm Calm - N/A   Clear
4:53 AM 6.1 °F - -0.0 °F 76% 30.40 in 10.0 mi Calm Calm - N/A   Clear
5:53 AM 10.0 °F 0.4 °F -0.9 °F 61% 30.39 in 10.0 mi North 5.8 mph - N/A   Clear
6:53 AM 12.9 °F 2.6 °F -2.0 °F 51% 30.38 in 10.0 mi North 6.9 mph - N/A   Clear
7:53 AM 12.9 °F 3.8 °F -2.0 °F 51% 30.38 in 10.0 mi North 5.8 mph - N/A   Clear
8:53 AM 15.1 °F 3.3 °F -2.9 °F 45% 30.38 in 10.0 mi NNE 9.2 mph - N/A   Clear
9:53 AM 16.0 °F 3.6 °F -2.9 °F 43% 30.38 in 10.0 mi NNE 10.4 mph - N/A   Mostly Cloudy
10:53 AM 17.1 °F 7.6 °F -2.0 °F 43% 30.38 in 10.0 mi North 6.9 mph - N/A   Clear
11:53 AM 19.0 °F 9.0 °F -0.9 °F 42% 30.38 in 10.0 mi NNE 8.1 mph - N/A   Clear
12:53 PM 21.0 °F 12.4 °F -2.0 °F 36% 30.37 in 10.0 mi NNE 6.9 mph - N/A   Mostly Cloudy
1:53 PM 21.9 °F 11.7 °F -0.0 °F 38% 30.35 in 10.0 mi North 9.2 mph - N/A   Overcast
2:53 PM 23.0 °F 15.8 °F 1.0 °F 39% 30.33 in 10.0 mi North 5.8 mph - N/A   Overcast
3:53 PM 23.0 °F 13.9 °F -0.0 °F 37% 30.32 in 10.0 mi NNE 8.1 mph 17.3 mph N/A   Overcast
4:53 PM 23.0 °F 15.8 °F 1.0 °F 39% 30.31 in 10.0 mi North 5.8 mph - N/A   Overcast
5:53 PM 23.0 °F 13.9 °F -0.0 °F 37% 30.29 in 10.0 mi NNE 8.1 mph - N/A   Overcast
6:53 PM 24.1 °F 13.7 °F 1.0 °F 37% 30.28 in 10.0 mi NNE 10.4 mph - N/A   Overcast
7:53 PM 24.1 °F 14.4 °F 1.0 °F 37% 30.26 in 10.0 mi NNE 9.2 mph 17.3 mph N/A   Overcast
8:53 PM 24.1 °F 15.2 °F 1.9 °F 38% 30.26 in 10.0 mi NNE 8.1 mph - N/A   Overcast
9:53 PM 25.0 °F 14.8 °F 1.0 °F 36% 30.25 in 10.0 mi NNE 10.4 mph - N/A   Overcast
10:53 PM 25.0 °F 15.5 °F 1.9 °F 37% 30.24 in 10.0 mi NNE 9.2 mph - N/A   Overcast
11:53 PM 26.1 °F 17.6 °F 3.0 °F 37% 30.23 in 10.0 mi NNE 8.1 mph - N/A   Overcast